| time (UTC) | temp F | wind direction | speed MPH | gust MPH | rain 1hr in | rain 24hr in | rain mn in | humidity % | barometer mb |
| 20260905090032 | 65 | 240 | 12.0 | 20.0 | 0.00 | 0.55 | 0.00 | 71 | 1020.9 |
| 20260905085521 | 65 | 259 | 12.0 | 23.0 | 0.00 | 0.55 | 0.00 | 71 | 1020.8 |
| 20260905085025 | 65 | 253 | 12.0 | 23.0 | 0.00 | 0.55 | 0.00 | 71 | 1020.8 |
| 20260905084534 | 65 | 250 | 10.0 | 18.0 | 0.00 | 0.55 | 0.00 | 71 | 1020.7 |
| 20260905084022 | 65 | 292 | 12.0 | 21.0 | 0.00 | 0.55 | 0.00 | 72 | 1020.7 |
| 20260905083526 | 65 | 209 | 13.0 | 21.0 | 0.00 | 0.55 | 0.00 | 72 | 1020.5 |
| 20260905083034 | 65 | 285 | 14.0 | 20.0 | 0.00 | 0.55 | 0.00 | 73 | 1020.5 |
| 20260905082543 | 65 | 246 | 12.0 | 20.0 | 0.00 | 0.55 | 0.00 | 73 | 1020.5 |
| 20260905082031 | 65 | 284 | 10.0 | 19.0 | 0.00 | 0.55 | 0.00 | 73 | 1020.3 |
| 20260905081520 | 65 | 275 | 11.0 | 19.0 | 0.00 | 0.55 | 0.00 | 74 | 1020.2 |
| 20260905081044 | 65 | 288 | 12.0 | 19.0 | 0.00 | 0.55 | 0.00 | 74 | 1020.2 |
| 20260905080552 | 65 | 240 | 13.0 | 20.0 | 0.00 | 0.55 | 0.00 | 75 | 1019.9 |
| 20260905080033 | 65 | 259 | 11.0 | 20.0 | 0.00 | 0.55 | 0.00 | 76 | 1019.8 |
| 20260905075522 | 64 | 261 | 11.0 | 20.0 | 0.00 | 0.55 | 0.00 | 76 | 1019.8 |
| 20260905075022 | 64 | 278 | 12.0 | 20.0 | 0.00 | 0.55 | 0.00 | 77 | 1019.7 |
| 20260905074529 | 64 | 251 | 9.0 | 19.0 | 0.00 | 0.55 | 0.00 | 77 | 1019.6 |
| 20260905074038 | 64 | 306 | 12.0 | 18.0 | 0.00 | 0.55 | 0.00 | 77 | 1019.6 |
| 20260905073526 | 64 | 267 | 11.0 | 17.0 | 0.00 | 0.55 | 0.00 | 77 | 1019.5 |
| 20260905073030 | 64 | 256 | 12.0 | 20.0 | 0.00 | 0.55 | 0.00 | 77 | 1019.5 |
| 20260905072539 | 64 | 244 | 10.0 | 20.0 | 0.00 | 0.55 | 0.00 | 77 | 1019.5 |
| 20260905072044 | 64 | 275 | 13.0 | 20.0 | 0.00 | 0.55 | 0.00 | 77 | 1019.4 |
| 20260905071559 | 64 | 284 | 13.0 | 20.0 | 0.00 | 0.55 | 0.00 | 77 | 1019.4 |
| 20260905071027 | 64 | 288 | 13.0 | 20.0 | 0.00 | 0.55 | 0.00 | 77 | 1019.3 |
| 20260905070550 | 64 | 265 | 13.0 | 19.0 | 0.00 | 0.55 | 0.00 | 76 | 1019.3 |
| 20260905070029 | 63 | 245 | 12.0 | 21.0 | 0.00 | 0.55 | 0.00 | 77 | 1019.2 |
| 20260905065526 | 63 | 286 | 10.0 | 19.0 | 0.00 | 0.55 | 0.00 | 77 | 1019.1 |
| 20260905065032 | 64 | 215 | 12.0 | 19.0 | 0.00 | 0.55 | 0.00 | 78 | 1019.2 |
| 20260905064538 | 64 | 247 | 11.0 | 18.0 | 0.00 | 0.55 | 0.00 | 78 | 1019.2 |
| 20260905064023 | 64 | 265 | 11.0 | 20.0 | 0.00 | 0.55 | 0.00 | 78 | 1019.0 |
| 20260905063530 | 64 | 277 | 12.0 | 20.0 | 0.00 | 0.55 | 0.00 | 78 | 1019.0 |
| 20260905063035 | 63 | 263 | 12.0 | 19.0 | 0.00 | 0.55 | 0.00 | 78 | 1019.0 |
| 20260905062522 | 63 | 270 | 11.0 | 19.0 | 0.00 | 0.55 | 0.00 | 78 | 1018.9 |
| 20260905062023 | 64 | 275 | 11.0 | 20.0 | 0.00 | 0.55 | 0.00 | 78 | 1018.8 |
| 20260905061549 | 63 | 263 | 11.0 | 25.0 | 0.00 | 0.55 | 0.00 | 78 | 1018.8 |
| 20260905061033 | 64 | 257 | 10.0 | 25.0 | 0.00 | 0.55 | 0.00 | 79 | 1018.7 |
| 20260905060519 | 64 | 269 | 12.0 | 24.0 | 0.00 | 0.55 | 0.00 | 79 | 1018.7 |
| 20260905060037 | 64 | 246 | 12.0 | 24.0 | 0.00 | 0.55 | 0.00 | 78 | 1018.6 |
| 20260905055522 | 64 | 246 | 12.0 | 22.0 | 0.00 | 0.55 | 0.00 | 79 | 1018.4 |
| 20260905055029 | 64 | 243 | 12.0 | 22.0 | 0.00 | 0.55 | 0.00 | 78 | 1018.5 |
| 20260905054537 | 64 | 263 | 12.0 | 21.0 | 0.00 | 0.55 | 0.00 | 78 | 1018.5 |
| 20260905054025 | 64 | 281 | 11.0 | 18.0 | 0.00 | 0.55 | 0.00 | 78 | 1018.4 |
| 20260905053528 | 63 | 273 | 11.0 | 23.0 | 0.00 | 0.55 | 0.00 | 77 | 1018.3 |
| 20260905053035 | 63 | 248 | 10.0 | 23.0 | 0.00 | 0.55 | 0.00 | 77 | 1018.2 |
| 20260905052524 | 63 | 252 | 13.0 | 19.0 | 0.00 | 0.55 | 0.00 | 78 | 1018.2 |
| 20260905052032 | 63 | 223 | 9.0 | 17.0 | 0.00 | 0.55 | 0.00 | 78 | 1018.2 |
| 20260905051522 | 63 | 288 | 12.0 | 17.0 | 0.00 | 0.55 | 0.00 | 78 | 1018.1 |
| 20260905051042 | 63 | 279 | 11.0 | 18.0 | 0.00 | 0.55 | 0.00 | 78 | 1018.0 |
| 20260905050529 | 64 | 288 | 8.0 | 20.0 | 0.00 | 0.55 | 0.00 | 78 | 1017.9 |
| 20260905050027 | 64 | 250 | 9.0 | 20.0 | 0.00 | 0.55 | 0.00 | 78 | 1017.9 |
| 20260905045546 | 64 | 286 | 12.0 | 18.0 | 0.00 | 0.55 | 0.00 | 78 | 1017.8 |
| 20260905045058 | 64 | 303 | 10.0 | 18.0 | 0.00 | 0.55 | 0.00 | 78 | 1017.7 |
| 20260905044522 | 63 | 288 | 10.0 | 18.0 | 0.00 | 0.55 | 0.00 | 78 | 1017.7 |
| 20260905044028 | 64 | 238 | 10.0 | 17.0 | 0.00 | 0.55 | 0.00 | 78 | 1017.7 |
| 20260905043537 | 64 | 271 | 10.0 | 17.0 | 0.00 | 0.55 | 0.00 | 78 | 1017.7 |
| 20260905043041 | 64 | 237 | 9.0 | 17.0 | 0.00 | 0.55 | 0.00 | 78 | 1017.6 |
| 20260905042528 | 64 | 250 | 9.0 | 19.0 | 0.00 | 0.55 | 0.00 | 78 | 1017.6 |
| 20260905042100 | 64 | 265 | 12.0 | 19.0 | 0.00 | 0.55 | 0.00 | 78 | 1017.5 |
| 20260905041529 | 64 | 278 | 13.0 | 17.0 | 0.00 | 0.55 | 0.00 | 78 | 1017.4 |
| 20260905041033 | 64 | 235 | 8.0 | 18.0 | 0.00 | 0.55 | 0.00 | 78 | 1017.5 |
| 20260905040522 | 64 | 275 | 11.0 | 18.0 | 0.00 | 0.55 | 0.00 | 78 | 1017.5 |
| 20260905040022 | 64 | 275 | 13.0 | 17.0 | 0.00 | 0.55 | 0.00 | 78 | 1017.4 |
| 20260905035530 | 64 | 267 | 11.0 | 21.0 | 0.00 | 0.55 | 0.00 | 78 | 1017.4 |
| 20260905035037 | 64 | 249 | 12.0 | 21.0 | 0.00 | 0.55 | 0.00 | 78 | 1017.3 |
| 20260905034520 | 64 | 267 | 10.0 | 20.0 | 0.00 | 0.55 | 0.00 | 78 | 1017.3 |
| 20260905034029 | 64 | 248 | 10.0 | 20.0 | 0.00 | 0.55 | 0.00 | 78 | 1017.3 |
| 20260905033539 | 64 | 273 | 9.0 | 15.0 | 0.00 | 0.55 | 0.00 | 77 | 1017.3 |
| 20260905033025 | 64 | 246 | 7.0 | 15.0 | 0.00 | 0.55 | 0.00 | 77 | 1017.3 |
| 20260905032530 | 64 | 269 | 8.0 | 17.0 | 0.00 | 0.55 | 0.00 | 77 | 1017.3 |
| 20260905032034 | 64 | 242 | 10.0 | 17.0 | 0.00 | 0.55 | 0.00 | 77 | 1017.2 |
| 20260905031540 | 64 | 294 | 10.0 | 21.0 | 0.00 | 0.55 | 0.00 | 77 | 1017.2 |
| 20260905031026 | 64 | 250 | 13.0 | 21.0 | 0.00 | 0.55 | 0.00 | 77 | 1017.1 |
| 20260905030559 | 64 | 262 | 12.0 | 19.0 | 0.00 | 0.55 | 0.00 | 76 | 1017.2 |
| 20260905030020 | 64 | 258 | 8.0 | 18.0 | 0.00 | 0.55 | 0.00 | 76 | 1017.2 |
| 20260905025546 | 64 | 255 | 10.0 | 17.0 | 0.00 | 0.55 | 0.00 | 76 | 1017.1 |
| 20260905025032 | 64 | 257 | 11.0 | 17.0 | 0.00 | 0.55 | 0.00 | 76 | 1017.0 |
| 20260905024520 | 64 | 253 | 9.0 | 17.0 | 0.00 | 0.55 | 0.00 | 76 | 1016.9 |
| 20260905024022 | 64 | 277 | 9.0 | 15.0 | 0.00 | 0.55 | 0.00 | 75 | 1016.9 |
| 20260905023531 | 64 | 294 | 9.0 | 17.0 | 0.00 | 0.55 | 0.00 | 75 | 1017.0 |
| 20260905023039 | 64 | 227 | 11.0 | 17.0 | 0.00 | 0.55 | 0.00 | 75 | 1016.9 |
| 20260905022525 | 64 | 290 | 10.0 | 17.0 | 0.00 | 0.55 | 0.00 | 75 | 1017.0 |
| 20260905022034 | 64 | 281 | 11.0 | 18.0 | 0.00 | 0.55 | 0.00 | 75 | 1017.0 |
| 20260905021519 | 64 | 263 | 8.0 | 16.0 | 0.00 | 0.55 | 0.00 | 74 | 1016.9 |
| 20260905021047 | 64 | 258 | 10.0 | 16.0 | 0.00 | 0.55 | 0.00 | 74 | 1016.8 |
| 20260905020553 | 64 | 302 | 10.0 | 18.0 | 0.00 | 0.55 | 0.00 | 73 | 1016.8 |
| 20260905020059 | 64 | 255 | 8.0 | 18.0 | 0.00 | 0.55 | 0.00 | 73 | 1016.7 |
| 20260905015520 | 64 | 243 | 10.0 | 18.0 | 0.00 | 0.55 | 0.00 | 73 | 1016.8 |
| 20260905015024 | 64 | 252 | 9.0 | 18.0 | 0.00 | 0.55 | 0.00 | 73 | 1016.8 |
| 20260905014532 | 64 | 249 | 11.0 | 17.0 | 0.00 | 0.55 | 0.00 | 72 | 1016.7 |
| 20260905014039 | 64 | 202 | 9.0 | 20.0 | 0.00 | 0.55 | 0.00 | 71 | 1016.8 |
| 20260905013525 | 64 | 284 | 11.0 | 20.0 | 0.00 | 0.55 | 0.00 | 71 | 1016.8 |
| 20260905013045 | 64 | 259 | 9.0 | 17.0 | 0.00 | 0.55 | 0.00 | 71 | 1016.7 |
| 20260905012525 | 64 | 288 | 10.0 | 19.0 | 0.00 | 0.55 | 0.00 | 71 | 1016.6 |
| 20260905012029 | 64 | 267 | 12.0 | 19.0 | 0.00 | 0.55 | 0.00 | 71 | 1016.6 |
| 20260905011539 | 64 | 267 | 12.0 | 17.0 | 0.00 | 0.55 | 0.00 | 71 | 1016.7 |
| 20260905011020 | 64 | 267 | 9.0 | 18.0 | 0.00 | 0.55 | 0.00 | 71 | 1016.6 |
| 20260905010548 | 65 | 283 | 9.0 | 17.0 | 0.00 | 0.55 | 0.00 | 71 | 1016.6 |
| 20260905010049 | 65 | 277 | 11.0 | 18.0 | 0.00 | 0.55 | 0.00 | 70 | 1016.5 |
| 20260905005536 | 65 | 267 | 11.0 | 17.0 | 0.00 | 0.55 | 0.00 | 71 | 1016.5 |
| 20260905005039 | 65 | 294 | 11.0 | 16.0 | 0.00 | 0.55 | 0.00 | 72 | 1016.5 |
| 20260905004543 | 65 | 257 | 10.0 | 16.0 | 0.00 | 0.55 | 0.00 | 72 | 1016.6 |
| 20260905004025 | 65 | 270 | 9.0 | 18.0 | 0.00 | 0.55 | 0.00 | 72 | 1016.6 |
| 20260905003530 | 65 | 271 | 11.0 | 18.0 | 0.00 | 0.55 | 0.00 | 72 | 1016.6 |
| 20260905003055 | 65 | 271 | 11.0 | 18.0 | 0.00 | 0.55 | 0.00 | 71 | 1016.6 |
| 20260905002520 | 65 | 255 | 10.0 | 16.0 | 0.00 | 0.55 | 0.00 | 72 | 1016.6 |
| 20260905002026 | 65 | 286 | 12.0 | 17.0 | 0.00 | 0.55 | 0.00 | 71 | 1016.6 |
| 20260905001551 | 65 | 259 | 11.0 | 18.0 | 0.00 | 0.55 | 0.00 | 70 | 1016.5 |
| 20260905001034 | 65 | 254 | 11.0 | 19.0 | 0.00 | 0.55 | 0.00 | 70 | 1016.5 |
| 20260905000522 | 65 | 261 | 11.0 | 19.0 | 0.00 | 0.55 | 0.00 | 70 | 1016.5 |
| 20260905000022 | 65 | 273 | 8.0 | 20.0 | 0.00 | 0.55 | 0.00 | 71 | 1016.4 |
| 20260904235548 | 65 | 238 | 11.0 | 22.0 | 0.00 | 0.55 | 0.00 | 71 | 1016.4 |
| 20260904235029 | 65 | 269 | 11.0 | 18.0 | 0.00 | 0.55 | 0.00 | 70 | 1016.4 |
| 20260904234600 | 65 | 262 | 12.0 | 22.0 | 0.00 | 0.55 | 0.00 | 70 | 1016.4 |
| 20260904234022 | 65 | 266 | 11.0 | 22.0 | 0.00 | 0.55 | 0.00 | 70 | 1016.4 |
| 20260904233527 | 65 | 234 | 11.0 | 20.0 | 0.00 | 0.55 | 0.00 | 70 | 1016.3 |
| 20260904233048 | 65 | 274 | 12.0 | 20.0 | 0.00 | 0.55 | 0.00 | 70 | 1016.3 |
| 20260904232536 | 65 | 238 | 12.0 | 20.0 | 0.00 | 0.55 | 0.00 | 70 | 1016.3 |
| 20260904232021 | 65 | 246 | 14.0 | 20.0 | 0.00 | 0.55 | 0.00 | 71 | 1016.1 |
| 20260904231526 | 65 | 249 | 9.0 | 19.0 | 0.00 | 0.55 | 0.00 | 71 | 1016.2 |
| 20260904231030 | 66 | 256 | 10.0 | 20.0 | 0.00 | 0.55 | 0.00 | 70 | 1016.2 |
| 20260904230533 | 66 | 225 | 10.0 | 18.0 | 0.00 | 0.55 | 0.00 | 70 | 1016.2 |
| 20260904230032 | 66 | 256 | 10.0 | 18.0 | 0.00 | 0.55 | 0.00 | 70 | 1016.2 |
| 20260904225540 | 66 | 260 | 11.0 | 16.0 | 0.00 | 0.55 | 0.00 | 70 | 1016.1 |
| 20260904225022 | 66 | 263 | 8.0 | 17.0 | 0.00 | 0.55 | 0.00 | 71 | 1016.2 |
| 20260904224526 | 66 | 249 | 11.0 | 19.0 | 0.00 | 0.55 | 0.00 | 70 | 1016.1 |
| 20260904224034 | 66 | 267 | 12.0 | 19.0 | 0.00 | 0.55 | 0.00 | 69 | 1016.1 |
| 20260904223524 | 66 | 267 | 9.0 | 18.0 | 0.00 | 0.55 | 0.00 | 69 | 1016.2 |
| 20260904223029 | 66 | 257 | 9.0 | 18.0 | 0.00 | 0.55 | 0.00 | 69 | 1016.0 |
| 20260904222537 | 66 | 290 | 12.0 | 17.0 | 0.00 | 0.55 | 0.00 | 69 | 1016.1 |
| 20260904222020 | 66 | 292 | 10.0 | 20.0 | 0.00 | 0.55 | 0.00 | 69 | 1016.1 |
| 20260904221528 | 66 | 256 | 11.0 | 20.0 | 0.00 | 0.55 | 0.00 | 69 | 1016.1 |
| 20260904221037 | 66 | 232 | 8.0 | 17.0 | 0.00 | 0.55 | 0.00 | 68 | 1016.0 |
| 20260904220543 | 66 | 274 | 11.0 | 19.0 | 0.00 | 0.55 | 0.00 | 67 | 1016.0 |
| 20260904220028 | 66 | 268 | 13.0 | 20.0 | 0.00 | 0.55 | 0.00 | 69 | 1015.9 |
| 20260904215530 | 66 | 265 | 13.0 | 20.0 | 0.00 | 0.55 | 0.11 | 68 | 1015.9 |
| 20260904215035 | 66 | 255 | 12.0 | 19.0 | 0.00 | 0.55 | 0.11 | 68 | 1015.9 |
| 20260904214542 | 66 | 257 | 11.0 | 20.0 | 0.00 | 0.55 | 0.11 | 68 | 1015.9 |
| 20260904214022 | 66 | 221 | 12.0 | 20.0 | 0.00 | 0.55 | 0.11 | 68 | 1015.9 |
| 20260904213557 | 66 | 265 | 11.0 | 20.0 | 0.00 | 0.55 | 0.11 | 68 | 1015.9 |
| 20260904213021 | 66 | 266 | 12.0 | 19.0 | 0.00 | 0.55 | 0.11 | 68 | 1015.8 |
| 20260904212527 | 66 | 306 | 12.0 | 20.0 | 0.00 | 0.55 | 0.11 | 68 | 1015.8 |
| 20260904212029 | 66 | 271 | 11.0 | 23.0 | 0.00 | 0.55 | 0.11 | 67 | 1015.7 |
| 20260904211538 | 66 | 256 | 13.0 | 23.0 | 0.00 | 0.55 | 0.11 | 67 | 1015.6 |
| 20260904211024 | 66 | 273 | 13.0 | 23.0 | 0.00 | 0.55 | 0.11 | 67 | 1015.6 |
| 20260904210529 | 66 | 286 | 11.0 | 23.0 | 0.00 | 0.55 | 0.11 | 67 | 1015.7 |
| 20260904210031 | 66 | 267 | 12.0 | 21.0 | 0.00 | 0.55 | 0.11 | 68 | 1015.6 |
| 20260904205537 | 66 | 275 | 12.0 | 19.0 | 0.00 | 0.55 | 0.11 | 68 | 1015.5 |
| 20260904205024 | 66 | 225 | 11.0 | 21.0 | 0.00 | 0.55 | 0.11 | 67 | 1015.5 |
| 20260904204532 | 66 | 242 | 10.0 | 21.0 | 0.00 | 0.55 | 0.11 | 68 | 1015.5 |
| 20260904204019 | 66 | 272 | 10.0 | 21.0 | 0.00 | 0.55 | 0.11 | 69 | 1015.5 |
| 20260904203529 | 66 | 240 | 11.0 | 21.0 | 0.00 | 0.55 | 0.11 | 69 | 1015.5 |
| 20260904203056 | 66 | 275 | 11.0 | 20.0 | 0.00 | 0.55 | 0.11 | 69 | 1015.3 |
| 20260904202523 | 66 | 241 | 14.0 | 20.0 | 0.00 | 0.55 | 0.11 | 68 | 1015.3 |
| 20260904202030 | 66 | 263 | 12.0 | 19.0 | 0.00 | 0.55 | 0.11 | 69 | 1015.3 |
| 20260904201519 | 66 | 268 | 12.0 | 21.0 | 0.00 | 0.55 | 0.11 | 67 | 1015.3 |
| 20260904201025 | 66 | 234 | 13.0 | 21.0 | 0.00 | 0.55 | 0.11 | 67 | 1015.2 |
| 20260904200530 | 66 | 298 | 11.0 | 24.0 | 0.00 | 0.55 | 0.11 | 67 | 1015.3 |
| 20260904200032 | 66 | 207 | 12.0 | 24.0 | 0.00 | 0.55 | 0.11 | 68 | 1015.3 |
| 20260904195522 | 66 | 259 | 10.0 | 19.0 | 0.00 | 0.55 | 0.11 | 67 | 1015.3 |
| 20260904195030 | 66 | 266 | 10.0 | 21.0 | 0.00 | 0.55 | 0.11 | 67 | 1015.2 |
| 20260904194533 | 66 | 261 | 12.0 | 21.0 | 0.00 | 0.55 | 0.11 | 68 | 1015.1 |
| 20260904194019 | 66 | 266 | 10.0 | 18.0 | 0.00 | 0.55 | 0.11 | 67 | 1015.1 |
| 20260904193527 | 66 | 274 | 12.0 | 18.0 | 0.00 | 0.55 | 0.11 | 66 | 1014.9 |
| 20260904193055 | 66 | 248 | 12.0 | 18.0 | 0.00 | 0.55 | 0.11 | 66 | 1014.9 |
| 20260904192540 | 66 | 263 | 10.0 | 19.0 | 0.00 | 0.55 | 0.11 | 67 | 1014.9 |
| 20260904192024 | 66 | 234 | 13.0 | 19.0 | 0.00 | 0.55 | 0.11 | 66 | 1014.8 |
| 20260904191030 | 66 | 286 | 12.0 | 20.0 | 0.00 | 0.55 | 0.11 | 66 | 1014.6 |
| 20260904190045 | 66 | 270 | 13.0 | 24.0 | 0.00 | 0.55 | 0.11 | 69 | 1014.6 |
| 20260904185534 | 66 | 266 | 11.0 | 20.0 | 0.00 | 0.55 | 0.11 | 69 | 1014.4 |
| 20260904185042 | 66 | 223 | 8.0 | 19.0 | 0.00 | 0.55 | 0.11 | 69 | 1014.5 |
| 20260904184524 | 66 | 227 | 11.0 | 19.0 | 0.00 | 0.55 | 0.11 | 69 | 1014.4 |
| 20260904184143 | 66 | 284 | 9.0 | 21.0 | 0.00 | 0.55 | 0.11 | 68 | 1014.4 |
| 20260904183534 | 66 | 259 | 11.0 | 21.0 | 0.00 | 0.55 | 0.11 | 68 | 1014.2 |
| 20260904183023 | 66 | 275 | 11.0 | 18.0 | 0.00 | 0.55 | 0.11 | 69 | 1014.3 |
| 20260904182530 | 66 | 248 | 10.0 | 23.0 | 0.00 | 0.55 | 0.11 | 69 | 1014.3 |
| 20260904182031 | 66 | 258 | 11.0 | 17.0 | 0.00 | 0.55 | 0.11 | 70 | 1014.2 |
| 20260904181522 | 66 | 248 | 11.0 | 20.0 | 0.00 | 0.55 | 0.11 | 71 | 1014.1 |
| 20260904181029 | 67 | 267 | 11.0 | 20.0 | 0.00 | 0.55 | 0.11 | 71 | 1014.1 |
| 20260904180530 | 67 | 246 | 11.0 | 23.0 | 0.00 | 0.55 | 0.11 | 70 | 1014.0 |
| 20260904180056 | 67 | 236 | 11.0 | 23.0 | 0.00 | 0.55 | 0.11 | 70 | 1014.0 |
| 20260904175521 | 67 | 248 | 11.0 | 19.0 | 0.00 | 0.55 | 0.11 | 70 | 1014.1 |
| 20260904175027 | 67 | 269 | 11.0 | 21.0 | 0.00 | 0.55 | 0.11 | 70 | 1014.0 |
| 20260904174533 | 67 | 271 | 13.0 | 24.0 | 0.00 | 0.55 | 0.11 | 69 | 1013.8 |
| 20260904174023 | 67 | 253 | 14.0 | 24.0 | 0.00 | 0.55 | 0.11 | 69 | 1013.9 |
| 20260904173529 | 67 | 242 | 13.0 | 23.0 | 0.00 | 0.55 | 0.11 | 70 | 1013.9 |
| 20260904173058 | 67 | 274 | 14.0 | 23.0 | 0.00 | 0.55 | 0.11 | 71 | 1013.8 |
| 20260904172524 | 67 | 245 | 13.0 | 21.0 | 0.00 | 0.55 | 0.11 | 70 | 1013.7 |
| 20260904172049 | 67 | 244 | 13.0 | 21.0 | 0.00 | 0.55 | 0.11 | 71 | 1013.6 |
| 20260904171538 | 67 | 265 | 13.0 | 24.0 | 0.00 | 0.55 | 0.11 | 70 | 1013.5 |
| 20260904171020 | 67 | 283 | 14.0 | 24.0 | 0.00 | 0.55 | 0.11 | 70 | 1013.5 |
| 20260904170531 | 67 | 263 | 12.0 | 21.0 | 0.00 | 0.55 | 0.11 | 70 | 1013.5 |
| 20260904170057 | 67 | 298 | 12.0 | 23.0 | 0.00 | 0.55 | 0.11 | 70 | 1013.2 |
| 20260904165524 | 67 | 266 | 14.0 | 23.0 | 0.00 | 0.55 | 0.11 | 70 | 1013.4 |
| 20260904165024 | 67 | 248 | 11.0 | 23.0 | 0.00 | 0.55 | 0.11 | 71 | 1013.3 |
| 20260904164534 | 67 | 239 | 11.0 | 24.0 | 0.00 | 0.55 | 0.11 | 71 | 1013.3 |
| 20260904164020 | 67 | 264 | 13.0 | 24.0 | 0.00 | 0.55 | 0.11 | 70 | 1013.3 |
| 20260904163530 | 67 | 250 | 13.0 | 22.0 | 0.00 | 0.55 | 0.11 | 70 | 1013.3 |
| 20260904163038 | 67 | 281 | 13.0 | 22.0 | 0.00 | 0.55 | 0.11 | 70 | 1013.1 |
| 20260904162523 | 67 | 254 | 14.0 | 23.0 | 0.00 | 0.55 | 0.11 | 70 | 1013.0 |
| 20260904162028 | 67 | 271 | 14.0 | 21.0 | 0.00 | 0.55 | 0.11 | 70 | 1013.0 |
| 20260904161537 | 67 | 263 | 12.0 | 23.0 | 0.00 | 0.55 | 0.11 | 71 | 1012.9 |
| 20260904161025 | 67 | 234 | 15.0 | 23.0 | 0.00 | 0.55 | 0.11 | 71 | 1013.0 |
| 20260904160555 | 67 | 273 | 12.0 | 25.0 | 0.00 | 0.55 | 0.11 | 72 | 1012.8 |
| 20260904160031 | 67 | 293 | 11.0 | 25.0 | 0.00 | 0.55 | 0.11 | 73 | 1012.7 |
| 20260904155521 | 67 | 286 | 13.0 | 25.0 | 0.00 | 0.55 | 0.11 | 73 | 1012.9 |
| 20260904155030 | 67 | 305 | 13.0 | 25.0 | 0.00 | 0.55 | 0.11 | 73 | 1012.9 |
| 20260904154520 | 68 | 246 | 13.0 | 26.0 | 0.00 | 0.55 | 0.11 | 73 | 1012.8 |
| 20260904154026 | 68 | 268 | 12.0 | 22.0 | 0.00 | 0.55 | 0.11 | 71 | 1012.9 |
| 20260904153531 | 67 | 254 | 14.0 | 25.0 | 0.00 | 0.55 | 0.11 | 70 | 1012.8 |
| 20260904153020 | 68 | 266 | 15.0 | 25.0 | 0.00 | 0.55 | 0.11 | 72 | 1012.4 |
| 20260904152527 | 68 | 246 | 14.0 | 24.0 | 0.00 | 0.55 | 0.11 | 73 | 1012.7 |
| 20260904152048 | 68 | 244 | 12.0 | 21.0 | 0.00 | 0.55 | 0.11 | 76 | 1012.8 |
| 20260904151534 | 68 | 281 | 14.0 | 23.0 | 0.00 | 0.55 | 0.11 | 75 | 1013.0 |
| 20260904151021 | 68 | 269 | 11.0 | 22.0 | 0.00 | 0.55 | 0.11 | 75 | 1012.7 |
| 20260904150529 | 68 | 297 | 10.0 | 21.0 | 0.00 | 0.55 | 0.11 | 76 | 1012.4 |
| 20260904150030 | 68 | 241 | 12.0 | 21.0 | 0.00 | 0.55 | 0.11 | 75 | 1012.3 |
| 20260904145519 | 68 | 237 | 12.0 | 27.0 | 0.00 | 0.55 | 0.11 | 75 | 1012.5 |
| 20260904145043 | 68 | 304 | 12.0 | 24.0 | 0.00 | 0.55 | 0.11 | 76 | 1012.5 |
| 20260904144551 | 68 | 263 | 12.0 | 24.0 | 0.00 | 0.55 | 0.11 | 77 | 1012.6 |
| 20260904144019 | 68 | 254 | 16.0 | 21.0 | 0.00 | 0.55 | 0.11 | 78 | 1012.5 |
| 20260904143528 | 68 | 200 | 12.0 | 25.0 | 0.00 | 0.55 | 0.11 | 80 | 1012.5 |
| 20260904143032 | 68 | 290 | 16.0 | 25.0 | 0.00 | 0.55 | 0.11 | 79 | 1012.5 |
| 20260904142520 | 68 | 247 | 13.0 | 22.0 | 0.00 | 0.55 | 0.11 | 80 | 1012.3 |
| 20260904142026 | 68 | 229 | 14.0 | 24.0 | 0.00 | 0.55 | 0.11 | 81 | 1012.3 |
| 20260904141537 | 68 | 267 | 14.0 | 24.0 | 0.00 | 0.55 | 0.11 | 82 | 1012.2 |
| 20260904141046 | 67 | 262 | 13.0 | 22.0 | 0.00 | 0.55 | 0.11 | 83 | 1012.2 |
| 20260904140527 | 67 | 235 | 13.0 | 22.0 | 0.00 | 0.55 | 0.11 | 83 | 1012.3 |
| 20260904140030 | 68 | 246 | 13.0 | 20.0 | 0.00 | 0.55 | 0.11 | 83 | 1012.1 |
| 20260904135537 | 67 | 262 | 13.0 | 19.0 | 0.00 | 0.55 | 0.11 | 84 | 1012.0 |
| 20260904135024 | 67 | 253 | 10.0 | 25.0 | 0.00 | 0.55 | 0.11 | 84 | 1011.7 |
| 20260904134528 | 68 | 240 | 15.0 | 25.0 | 0.00 | 0.55 | 0.11 | 84 | 1011.9 |
| 20260904134035 | 67 | 238 | 12.0 | 21.0 | 0.00 | 0.55 | 0.11 | 84 | 1012.0 |
| 20260904133522 | 67 | 248 | 13.0 | 21.0 | 0.00 | 0.55 | 0.11 | 84 | 1012.0 |
| 20260904133029 | 67 | 261 | 13.0 | 21.0 | 0.00 | 0.55 | 0.11 | 84 | 1011.9 |
| 20260904132537 | 67 | 241 | 13.0 | 22.0 | 0.00 | 0.55 | 0.11 | 84 | 1011.7 |
| 20260904132021 | 67 | 270 | 15.0 | 22.0 | 0.00 | 0.55 | 0.11 | 85 | 1011.6 |
| 20260904131531 | 67 | 272 | 10.0 | 20.0 | 0.00 | 0.55 | 0.11 | 86 | 1011.6 |
| 20260904131019 | 67 | 276 | 11.0 | 21.0 | 0.00 | 0.55 | 0.11 | 86 | 1011.4 |
| 20260904130529 | 66 | 260 | 13.0 | 21.0 | 0.00 | 0.55 | 0.11 | 86 | 1011.3 |
| 20260904130029 | 67 | 268 | 13.0 | 19.0 | 0.00 | 0.55 | 0.11 | 87 | 1011.4 |
| 20260904125552 | 67 | 232 | 11.0 | 20.0 | 0.00 | 0.55 | 0.11 | 87 | 1011.4 |
| 20260904125019 | 67 | 257 | 11.0 | 20.0 | 0.00 | 0.55 | 0.11 | 88 | 1011.4 |
| 20260904124527 | 66 | 245 | 10.0 | 24.0 | 0.00 | 0.55 | 0.11 | 88 | 1011.1 |
| 20260904124032 | 66 | 256 | 14.0 | 23.0 | 0.00 | 0.55 | 0.11 | 88 | 1011.3 |
| 20260904123520 | 66 | 243 | 10.0 | 20.0 | 0.00 | 0.55 | 0.11 | 89 | 1011.4 |
| 20260904123022 | 66 | 248 | 10.0 | 20.0 | 0.00 | 0.55 | 0.11 | 90 | 1011.3 |
| 20260904122528 | 66 | 259 | 12.0 | 20.0 | 0.00 | 0.55 | 0.11 | 91 | 1011.2 |
| 20260904122034 | 66 | 281 | 10.0 | 19.0 | 0.04 | 0.55 | 0.11 | 92 | 1011.1 |
| 20260904121542 | 65 | 210 | 11.0 | 19.0 | 0.04 | 0.55 | 0.11 | 93 | 1011.1 |
| 20260904121022 | 65 | 252 | 10.0 | 21.0 | 0.04 | 0.55 | 0.11 | 93 | 1011.0 |
| 20260904120526 | 65 | 286 | 12.0 | 18.0 | 0.08 | 0.55 | 0.11 | 94 | 1011.0 |
| 20260904120024 | 65 | 279 | 11.0 | 20.0 | 0.12 | 0.55 | 0.11 | 94 | 1011.0 |
| 20260904115533 | 65 | 282 | 12.0 | 22.0 | 0.16 | 0.55 | 0.11 | 94 | 1011.1 |
| 20260904115020 | 65 | 274 | 13.0 | 22.0 | 0.24 | 0.55 | 0.11 | 94 | 1010.9 |
| 20260904114523 | 65 | 255 | 13.0 | 20.0 | 0.28 | 0.55 | 0.11 | 95 | 1010.9 |
| 20260904114057 | 65 | 252 | 10.0 | 19.0 | 0.28 | 0.55 | 0.11 | 95 | 1010.8 |
| 20260904113542 | 65 | 287 | 10.0 | 21.0 | 0.31 | 0.55 | 0.11 | 95 | 1010.7 |
| 20260904113027 | 65 | 315 | 10.0 | 18.0 | 0.35 | 0.55 | 0.11 | 95 | 1010.5 |
| 20260904112529 | 65 | 270 | 8.0 | 16.0 | 0.39 | 0.55 | 0.11 | 95 | 1010.7 |
| 20260904112030 | 65 | 266 | 8.0 | 17.0 | 0.39 | 0.51 | 0.10 | 95 | 1010.6 |
| 20260904111518 | 65 | 284 | 10.0 | 17.0 | 0.51 | 0.51 | 0.10 | 94 | 1010.6 |
| 20260904111026 | 65 | 251 | 6.0 | 17.0 | 0.51 | 0.51 | 0.10 | 94 | 1010.6 |
| 20260904110548 | 64 | 241 | 9.0 | 17.0 | 0.47 | 0.47 | 0.09 | 94 | 1010.5 |
| 20260904110027 | 64 | 290 | 8.0 | 15.0 | 0.43 | 0.43 | 0.09 | 94 | 1010.5 |
| 20260904105535 | 64 | 290 | 10.0 | 14.0 | 0.39 | 0.39 | 0.08 | 93 | 1010.6 |
| 20260904105022 | 65 | 261 | 9.0 | 17.0 | 0.31 | 0.31 | 0.06 | 93 | 1010.6 |
| 20260904104529 | 65 | 241 | 8.0 | 17.0 | 0.28 | 0.28 | 0.06 | 92 | 1010.5 |
| 20260904104033 | 65 | 244 | 10.0 | 16.0 | 0.28 | 0.28 | 0.06 | 92 | 1010.6 |
| 20260904103522 | 65 | 284 | 11.0 | 16.0 | 0.24 | 0.24 | 0.05 | 91 | 1010.6 |
| 20260904103027 | 65 | 264 | 7.0 | 18.0 | 0.20 | 0.20 | 0.04 | 90 | 1010.6 |
| 20260904102534 | 66 | 270 | 10.0 | 20.0 | 0.16 | 0.16 | 0.03 | 88 | 1010.6 |
| 20260904102022 | 68 | 276 | 12.0 | 25.0 | 0.12 | 0.12 | 0.02 | 85 | 1010.3 |
| 20260904101530 | 70 | 144 | 14.0 | 26.0 | 0.00 | 0.00 | 0.00 | 87 | 1010.0 |
| 20260904101019 | 71 | 246 | 15.0 | 31.0 | 0.00 | 0.00 | 0.00 | 86 | 1009.8 |
| 20260904100525 | 71 | 205 | 18.0 | 31.0 | 0.00 | 0.00 | 0.00 | 86 | 1009.9 |
| 20260904100027 | 71 | 179 | 13.0 | 36.0 | 0.00 | 0.00 | 0.00 | 86 | 1009.9 |
| 20260904095528 | 71 | 286 | 16.0 | 36.0 | 0.00 | 0.00 | 0.00 | 86 | 1009.9 |
| 20260904095034 | 71 | 228 | 11.0 | 29.0 | 0.00 | 0.00 | 0.00 | 86 | 1009.9 |
| 20260904094521 | 71 | 194 | 12.0 | 26.0 | 0.00 | 0.00 | 0.00 | 86 | 1009.9 |
| 20260904094028 | 71 | 223 | 15.0 | 30.0 | 0.00 | 0.00 | 0.00 | 86 | 1009.9 |
| 20260904093549 | 71 | 269 | 15.0 | 38.0 | 0.00 | 0.00 | 0.00 | 86 | 1009.9 |
| 20260904093035 | 71 | 200 | 16.0 | 38.0 | 0.00 | 0.00 | 0.00 | 86 | 1009.9 |
| 20260904092544 | 71 | 197 | 14.0 | 31.0 | 0.00 | 0.00 | 0.00 | 86 | 1010.0 |
| 20260904092032 | 71 | 222 | 13.0 | 31.0 | 0.00 | 0.00 | 0.00 | 86 | 1009.9 |
| 20260904091520 | 71 | 153 | 14.0 | 25.0 | 0.00 | 0.00 | 0.00 | 86 | 1009.9 |
| 20260904091041 | 71 | 140 | 12.0 | 29.0 | 0.00 | 0.00 | 0.00 | 86 | 1010.0 |
| 20260904090523 | 71 | 157 | 13.0 | 31.0 | 0.00 | 0.00 | 0.00 | 86 | 1009.9 |